Location: Rumah Geringgi
(3.1667°N, 113.1667°E)
Time: 20:40:54
(UTC+00:00)

CSL-04 DEB - Pass Details

Date: 03 August 2024
Orbit: 509 x 576 km, 98.7° (Epoch: 19 September)

Event Time Altitude Azimuth Distance (km) Brightness Sun altitude
Rises 21:02:09 0° 8° (N) 2,795 8.3 -20.7°
Reaches altitude 10° 21:04:18 10° 6° (N) 1,896 7.4 -20.2°
Maximum altitude 21:08:24 70° 283° (WNW) 617 4.3 -19.3°
Enters shadow 21:10:05 34° 208° (SSW) 962 5.1 -18.9°
